Skip Page Navigation
NASA JPL Caltech
NASA Logo - Jet Propulsion Laboratory + View the NASA Portal
+ Center for Near-Earth Object Studies
JPL Home Earth Solar System Stars & Galaxies Technology
JPL Solar System Dynamics
BODIES ORBITS EPHEMERIDES TOOLS PHYSICAL DATA DISCOVERY FAQ SITE MAP

Significant website upgrade scheduled for September 27. More details available here.

JPL Small-Body Database Browser
Search: [ help ]  
192084 (2006 BV155)
Classification: Main-belt Asteroid          SPK-ID: 2192084
Ephemeris | Orbit Diagram | Orbital Elements | Mission Design | Physical Parameters | Discovery Circumstances | Close-Approach Data ]

[ show orbit diagram ]
Orbital Elements at Epoch 2459396.5 (2021-Jul-01.0) TDB
Reference: JPL 22 (heliocentric ecliptic J2000)
 Element Value Uncertainty (1-sigma)   Units 
e .04951793098942607 4.5087e-08  
a 3.175282717074268 3.1986e-08 au
q 3.018049286618267 1.3668e-07 au
i 10.6567858641462 4.8505e-06 deg
node 137.4027153245521 2.6396e-05 deg
peri 117.9895665302906 6.0929e-05 deg
M 163.7814110562954 5.5856e-05 deg
tp 2458456.269935630598
(2018-Dec-03.76993563)
0.00031889 TDB
period 2066.674239707463
5.66
3.1228e-05
8.55e-08
d
yr
n .1741929100790253 2.6321e-09 deg/d
Q 3.332516147530268 3.357e-08 au
  Orbit Determination Parameters
   # obs. used (total)      467  
   data-arc span      7652 days (20.95 yr)  
   first obs. used      2000-02-01  
   last obs. used      2021-01-13  
   planetary ephem.      DE441  
   SB-pert. ephem.      SB441-N16  
   condition code      0  
   norm. resid. RMS      .49353  
   source      ORB  
   producer      Otto Matic  
   solution date      2021-Apr-13 22:14:36  

Additional Information
 Earth MOID = 2.02049 au 
 Jupiter MOID = 1.78839 au 
 T_jup = 3.172 
[ show covariance matrix ]

Ephemeris | Orbit Diagram | Orbital Elements | Mission Design | Physical Parameters | Discovery Circumstances | Close-Approach Data ]

Physical Parameter Table
Parameter Symbol Value Units Sigma Reference Notes
absolute magnitude H 15.10   n/a E2021B55  
diameter diameter 7.021 km 0.367 urn:nasa:pds:neowise_diameters_albedos::2.0[mainbelt] (http://adsabs.harvard.edu/abs/2011ApJ...741...68M)  
geometric albedo albedo 0.036   0.008 urn:nasa:pds:neowise_diameters_albedos::2.0[mainbelt] (http://adsabs.harvard.edu/abs/2011ApJ...741...68M)  

192084 (2006 BV155)          Discovered 2006-Jan-25 by Spacewatch at Kitt Peak
Reference: 20080917/Numbers.arcLast Updated: 2008-09-19

[ show close-approach data ]
Alternate Designations
 2006 BV155 = 2000 CN126 
Ephemeris | Orbit Diagram | Orbital Elements | Mission Design | Physical Parameters | Discovery Circumstances | Close-Approach Data ]
ABOUT SSD CREDITS/AWARDS PRIVACY/COPYRIGHT GLOSSARY LINKS
FirstGov 2021-Sep-25 19:59 UT
(server date/time)  
NASA Home Page
Site Manager:   Ryan S. Park
Webmaster  Alan B. Chamberlin